Palma de Mallorca, Spain

12:55 AM CET on December 16, 2017 (GMT +0100)
Palma De Mallorca

Weather History for LEPA - May, 2014

Change the Weather History Date:

Saturday, May 24, 2014

  Actual Average Record
Temperature  
Mean Temperature 66 °F -  
Max Temperature 80 °F 79 °F 86 °F (2003)
Min Temperature 51 °F 59 °F 48 °F (2015)
Growing Degree Days 16 (Base 50)    
Moisture  
Dew Point 50 °F    
Average Humidity 57    
Maximum Humidity 100    
Minimum Humidity 17    
Precipitation  
Precipitation 0.00 in 0.02 in - ()
Sea Level Pressure  
Sea Level Pressure 30.00 in    
Wind  
Wind Speed 4 mph ()    
Max Wind Speed 14 mph    
Max Gust Speed 18 mph    
Visibility 7.4 miles    
Events      
Averages and records for this station are not official NWS values.
T = Trace of Precipitation, MM = Missing Value Source: Averaged Metar Reports

Daily Weather History Graph

Daily Weather History Graph

Search for Another Location

Airport or City:

Trip Planner

Search our weather history database for the weather conditions in past years. The results will help you decide how hot, cold, wet, or windy it might be!

Date:

Astronomy

May. 24, 2014 Rise Set
Actual Time 6:28 AM CEST 9:04 PM CEST
Civil Twilight 5:56 AM CEST 9:35 PM CEST
Nautical Twilight 5:18 AM CEST 10:14 PM CEST
Astronomical Twilight 4:34 AM CEST 10:58 PM CEST
Moon 3:47 AM CEST (5/24) 4:45 PM CEST (5/24)
Length of Visible Light 15h 38m
Length of Day
14h 36m
Waning Crescent, 20% of the Moon is Illuminated
May 24
Waning Crescent
May 28
New
Jun 5
First Quarter
Jun 13
Full
Jun 19
Last Quarter

Hourly Weather History & Observations

Time (CEST) Temp. Dew Point Humidity Pressure Visibility Wind Dir Wind Speed Gust Speed Precip Events Conditions
12:00 AM 58 °F 51 °F 72% 30.01 in - ENE 2.3 mph - -  
12:00 AM 59.0 °F 51.8 °F 77% 30.01 in 6.2 mi Calm Calm - N/A   Partly Cloudy
12:30 AM 57.2 °F 51.8 °F 82% 30.01 in 6.2 mi Calm Calm - N/A   Partly Cloudy
1:00 AM 57 °F 52 °F 79% 30.03 in - NNW 2.3 mph - -  
1:00 AM 57.2 °F 51.8 °F 82% 30.01 in 6.2 mi Variable 1.2 mph - N/A   Scattered Clouds
1:30 AM 57.2 °F 50.0 °F 77% 30.01 in 6.2 mi Calm Calm - N/A   Scattered Clouds
2:00 AM 56 °F 49 °F 71% 30.02 in 12 mi North 2.3 mph - -   Scattered Clouds
2:00 AM 55.4 °F 50.0 °F 82% 30.01 in 6.2 mi Calm Calm - N/A   Partly Cloudy
2:30 AM 57.2 °F 48.2 °F 72% 30.01 in 6.2 mi Calm Calm - N/A   Partly Cloudy
3:00 AM 56 °F 51 °F 77% 30.02 in - Calm Calm - -  
3:00 AM 57.2 °F 50.0 °F 77% 30.01 in 6.2 mi ENE 1.2 mph - N/A   Partly Cloudy
3:30 AM 53.6 °F 50.0 °F 88% 30.01 in 6.2 mi NE 1.2 mph - N/A   Partly Cloudy
4:00 AM 53 °F 51 °F 89% 30.01 in - Calm Calm - -  
4:00 AM 53.6 °F 50.0 °F 88% 30.01 in 6.2 mi Calm Calm - N/A   Partly Cloudy
4:30 AM 53.6 °F 50.0 °F 88% 30.01 in 6.2 mi Calm Calm - N/A   Partly Cloudy
5:00 AM 53 °F 51 °F 88% 30.01 in 12 mi Calm Calm - -   Scattered Clouds
5:00 AM 53.6 °F 51.8 °F 94% 30.01 in 6.2 mi Calm Calm - N/A   Partly Cloudy
5:30 AM 51.8 °F 50.0 °F 94% 30.01 in 6.2 mi NNE 2.3 mph - N/A   Partly Cloudy
6:00 AM 53 °F 51 °F 89% 30.00 in - NE 2.3 mph - -  
6:00 AM 51.8 °F 50.0 °F 94% 30.01 in 6.2 mi NE 5.8 mph - N/A   Partly Cloudy
6:30 AM 55.4 °F 53.6 °F 94% 29.98 in 6.2 mi NE 2.3 mph - N/A   Partly Cloudy
7:00 AM 55 °F 54 °F 94% 30.01 in - Calm Calm - -  
7:00 AM 53.6 °F 53.6 °F 100% 30.01 in 6.2 mi Variable 1.2 mph - N/A   Partly Cloudy
7:30 AM 57.2 °F 55.4 °F 94% 30.01 in 6.2 mi NE 2.3 mph - N/A   Partly Cloudy
8:00 AM 62 °F 56 °F 75% 30.01 in 11 mi ENE 4.6 mph - -   Scattered Clouds
8:00 AM 59.0 °F 57.2 °F 94% 30.01 in 6.2 mi NE 5.8 mph - N/A   Partly Cloudy
8:30 AM 64.4 °F 57.2 °F 77% 30.01 in 6.2 mi NE 11.5 mph - N/A   Partly Cloudy
9:00 AM 67 °F 56 °F 61% 30.00 in - ENE 13.8 mph - -  
9:00 AM 66.2 °F 57.2 °F 73% 30.01 in 6.2 mi ENE 10.4 mph - N/A   Partly Cloudy
9:30 AM 68.0 °F 57.2 °F 68% 30.01 in 6.2 mi ENE 12.7 mph - N/A   Partly Cloudy
10:00 AM 70 °F 56 °F 51% 30.01 in - ENE 12.7 mph - -  
10:00 AM 69.8 °F 57.2 °F 64% 30.01 in 6.2 mi ENE 12.7 mph - N/A   Partly Cloudy
10:30 AM 71.6 °F 55.4 °F 57% 30.01 in 6.2 mi ENE 10.4 mph - N/A   Partly Cloudy
11:00 AM 74 °F 53 °F 38% 30.01 in 16 mi ENE 9.2 mph - -   Scattered Clouds
11:00 AM 73.4 °F 50.0 °F 44% 30.01 in 6.2 mi Variable 5.8 mph - N/A   Partly Cloudy
11:30 AM 75.2 °F 44.6 °F 34% 30.01 in 6.2 mi South 4.6 mph - N/A   Partly Cloudy
12:00 PM 78 °F 45 °F 21% 30.01 in - South 8.1 mph - -  
12:00 PM 77.0 °F 44.6 °F 32% 30.01 in 6.2 mi South 4.6 mph - N/A   Partly Cloudy
12:30 PM 75.2 °F 51.8 °F 44% 30.01 in 6.2 mi SW 9.2 mph - N/A   Partly Cloudy
1:00 PM 78 °F 45 °F 20% 30.01 in - WSW 11.5 mph - -  
1:00 PM 75.2 °F 44.6 °F 34% 30.01 in 6.2 mi WSW 11.5 mph - N/A   Partly Cloudy
1:30 PM 77.0 °F 42.8 °F 29% 29.98 in 6.2 mi West 10.4 mph - N/A   Partly Cloudy
2:00 PM 76 °F 53 °F 33% 29.99 in 19 mi West 11.5 mph - -   Partly Cloudy
2:00 PM 75.2 °F 48.2 °F 38% 29.98 in 6.2 mi South 3.5 mph - N/A   Scattered Clouds
2:30 PM 75.2 °F 51.8 °F 44% 29.98 in 6.2 mi ENE 5.8 mph 18.4 mph N/A   Scattered Clouds
3:00 PM 76 °F 51 °F 31% 29.99 in - West 6.9 mph - -  
3:00 PM 75.2 °F 46.4 °F 36% 29.98 in 6.2 mi ENE 8.1 mph - N/A   Scattered Clouds
3:30 PM 77.0 °F 41.0 °F 28% 29.98 in 6.2 mi SE 6.9 mph - N/A   Scattered Clouds
4:00 PM 78 °F 41 °F 17% 29.98 in - SE 12.7 mph - -  
4:00 PM 77.0 °F 41.0 °F 28% 29.98 in 6.2 mi ESE 12.7 mph - N/A   Scattered Clouds
4:30 PM 77.0 °F 41.0 °F 28% 29.98 in 6.2 mi ESE 8.1 mph - N/A   Scattered Clouds
5:00 PM 77 °F 41 °F 17% 29.98 in 19 mi ENE 3.5 mph - -   Scattered Clouds
5:00 PM 77.0 °F 39.2 °F 26% 29.98 in 6.2 mi ESE 4.6 mph - N/A   Partly Cloudy
5:30 PM 77.0 °F 41.0 °F 28% 29.95 in 6.2 mi East 6.9 mph - N/A   Partly Cloudy
6:00 PM 76 °F 40 °F 17% 29.99 in - ESE 9.2 mph - -  
6:00 PM 75.2 °F 39.2 °F 27% 29.98 in 6.2 mi East 10.4 mph - N/A   Partly Cloudy
6:30 PM 75.2 °F 39.2 °F 27% 29.98 in 6.2 mi East 8.1 mph - N/A   Scattered Clouds
7:00 PM 74 °F 41 °F 19% 30.00 in - East 6.9 mph - -  
7:00 PM 75.2 °F 41.0 °F 29% 29.98 in 6.2 mi East 5.8 mph - N/A   Scattered Clouds
7:30 PM 73.4 °F 42.8 °F 33% 29.98 in 6.2 mi ENE 4.6 mph - N/A   Scattered Clouds
8:00 PM 72 °F 46 °F 28% 30.00 in 19 mi ENE 6.9 mph - -   Scattered Clouds
8:00 PM 71.6 °F 44.6 °F 38% 29.98 in 6.2 mi ENE 5.8 mph - N/A   Mostly Cloudy
8:30 PM 71.6 °F 48.2 °F 43% 29.98 in 6.2 mi East 2.3 mph - N/A   Mostly Cloudy
9:00 PM 70 °F 56 °F 50% 30.01 in - West 1.2 mph - -  
9:00 PM 69.8 °F 53.6 °F 56% 30.01 in 6.2 mi Variable 2.3 mph - N/A   Scattered Clouds
9:30 PM 68.0 °F 57.2 °F 68% 30.01 in 6.2 mi Calm Calm - N/A   Scattered Clouds
10:00 PM 68 °F 53 °F 48% 30.03 in - East 2.3 mph - -  
10:00 PM 68.0 °F 55.4 °F 64% 30.01 in 6.2 mi Calm Calm - N/A   Scattered Clouds
10:30 PM 66.2 °F 53.6 °F 64% 30.04 in 6.2 mi East 3.5 mph - N/A   Scattered Clouds
11:00 PM 65 °F 53 °F 57% 30.03 in 9 mi NE 8.1 mph - -   Scattered Clouds
11:00 PM 66.2 °F 53.6 °F 64% 30.04 in 6.2 mi NE 5.8 mph - N/A   Scattered Clouds
11:30 PM 64.4 °F 55.4 °F 73% 30.04 in 6.2 mi ENE 6.9 mph - N/A   Scattered Clouds